Simultaneous Nadir Overpasses (SNOs) Predictions

Prediction of SNOs between METOP-C and LANDSAT-8 Satellite Orbit:

Table of predicted SNOs for the next 14.0 days since TLE Epoch: 6/18/2021
Index Date (METOP-C) Time (METOP-C) Lat,Lon (METOP-C) SZA (METOP-C ) Date (LANDSAT-8) Time (LANDSAT-8) Lat,Lon (LANDSAT-8) SZA (LANDSAT-8 ) Distance(km) Time Diff (sec)
1 06/18/2021 23:21:54 81.15,-130.29 59.89 06/18/2021 23:23:00 81.14,-130.44 59.90 2.68 66
2 06/19/2021 00:12:35 -81.16, 37.35 120.08 06/19/2021 00:12:26 -81.16, 37.46 120.07 1.93 9
3 06/21/2021 18:56:16 81.14, -64.12 59.83 06/21/2021 18:57:16 81.14, -64.02 59.86 1.65 60
4 06/21/2021 19:46:56 -81.16, 103.93 120.09 06/21/2021 19:46:42 -81.16, 103.91 120.10 0.56 14
5 06/24/2021 14:30:37 81.14, 2.42 59.87 06/24/2021 14:31:32 81.14, 2.37 59.88 1.09 55
6 06/24/2021 15:21:16 -81.18, 170.87 119.99 06/24/2021 15:20:57 -81.18, 170.69 120.02 3.04 19
7 06/27/2021 10:04:57 81.15, 68.95 59.96 06/27/2021 10:05:46 81.16, 69.10 60.00 2.68 49
8 06/27/2021 10:55:37 -81.17,-122.96 119.95 06/27/2021 10:55:12 -81.18,-122.92 119.95 0.90 25
9 06/30/2021 05:39:18 81.15, 135.48 60.11 06/30/2021 05:40:02 81.15, 135.43 60.12 0.73 44



Historial Predications of SNOs between METOP-C and LANDSAT-8
